Starlink 30398

operational
NORAD ID: 57815 Int'l Des: 2023-138 Owner: SPXS Country: US Constellation: starlink
LEOCIRCULAR

Über Starlink 30398

Beschreibung wird geladen...

Live-Position

3D-Globus wird geladen...

Nächste Überflüge

Höhenverlauf

Altitude vs Time

uPlot chart will show altitude changes over time

Zweizeiliger Elementsatz

1 57815U 23138H 25258.98028179 .00001080 00000-0 95059-4 0 9990
2 57815 43.0021 105.5272 0000908 259.3554 100.7186 15.02524734112336
Epoch: 15. Sept. 2025 • Age: 34 hours

Aktueller Status

Höhe 561.6 km
Geschwindigkeit 7.59 km/s
Subsatellitenpunkt 37.60°N, 82.79°E
Startdatum 9. Sept. 2023
Alter 2 years
Typ internet

Technische Details

Klassifizierung Payload
Masse 730.00 kg
Trockenmasse 700.00 kg
Gesamtmasse 730.00 kg
Länge 0.30 m
Durchmesser 4.10 m
Spannweite 29.00 m
Form Box + pan
Hersteller SPXS
Bus-Typ Starlink V2M
Phasenstatus In Orbit
Besitzer/Staat SPXS/US

Große Konstellationen

Loading constellations...